Regional Weather Roundup
Issued by NWS San Angelo, TX

Home | Current Version | Previous Version | Text Only | Print | Product List | Glossary On
Versions: 1 2 3 4 5 6 7 8 9 10 11 12 13 14 15 16 17 18 19 20 21 22 23 24 25 26 27 28 29 30 31 32 33 34 35 36 37 38 39 40 41 42 43 44 45 46 47 48 49 50
000
ASUS44 KSJT 250410
RWRSJT
WEST CENTRAL TEXAS REGIONAL WEATHER ROUNDUP
NATIONAL WEATHER SERVICE SAN ANGELO TX
1100 PM CDT SUN MAY 24 2015

NOTE: "FAIR" INDICATES FEW OR NO CLOUDS BELOW 12,000 FEET WITH NO
SIGNIFICANT WEATHER AND/OR OBSTRUCTIONS TO VISIBILITY.

TXZ049-054-064>066-071>073-076>078-098-099-113-114-127-128-139-140-
154-155-168>170-250500
...LOCATIONS ACROSS WEST CENTRAL TEXAS...

CITY           SKY/WX    TMP DP  RH WIND       PRES   REMARKS
SAN ANGELO     CLEAR     70  61  73 S8        29.86R
ABILENE        CLEAR     71  65  81 SE13      29.86R
DYESS AFB      CLEAR     71  62  75 S13       29.85
JUNCTION       CLEAR     73  65  75 SE12      29.89R
SWEETWATER     CLEAR     69  60  72 SE12      29.90R
BROWNWOOD      CLEAR     72  66  83 SE8       29.89R
COLEMAN        CLEAR     71  67  89 SE8       29.88R
SONORA         CLEAR     72  63  73 SE6       29.93R
OZONA          FAIR      72  54  53 S9        29.90R
BRADY          CLEAR     70  68  94 SE8       29.89R
$$

TEXAS PANHANDLE/OKLAHOMA PANHANDLE

CITY           SKY/WX    TMP DP  RH WIND       PRES   REMARKS
AMARILLO       PTCLDY    63  48  58 S10       29.82R
BORGER         CLEAR     66  52  60 S8        29.78R
CANADIAN       CLEAR     66  64  90 SE13      29.79R
DALHART        PTCLDY    59  46  62 W10       29.82R
DUMAS          PTCLDY    58  50  75 S10       29.81R
GUYMON         NOT AVBL
HEREFORD       PTCLDY    60  48  63 MISG      29.84R
PAMPA          CLEAR     62  57  84 SE12      29.82R
PERRYTON       PTCLDY    64  61  90 SE18G24   29.78R
$$

SOUTHERN PANHANDLE/SOUTH PLAINS/ROLLING PLAINS

CITY           SKY/WX    TMP DP  RH WIND       PRES   REMARKS
LUBBOCK        CLEAR     67  43  41 S12       29.84R
SNYDER         CLEAR     68  46  46 SE13      29.86R
CHILDRESS      CLEAR     67  61  81 SE10      29.80R
SEMINOLE       PTCLDY    60  40  48 S5        29.87R
$$

PERMIAN BASIN

CITY           SKY/WX    TMP DP  RH WIND       PRES   REMARKS
MIDLAND        CLEAR     68  48  48 SE9       29.86R
ODESSA           N/A    N/A N/A N/A MISG      29.86R
WINK           PTCLDY    69  41  36 SE8       29.82R
$$

FAR WEST/SOUTHWEST MOUNTAINS/TRANS PECOS

CITY           SKY/WX    TMP DP  RH WIND       PRES   REMARKS
ALPINE         PTCLDY    61  38  42 W3        29.97S
DRYDEN         NOT AVBL
EL PASO        MOCLDY    77  16  10 W15       29.86R
FORT STOCKTON  CLEAR     69  40  34 S9        29.85R
GUADALUPE PASS CLEAR     64  17  16 W9        29.97R
MARFA          PTCLDY    61  39  44 E8        29.95R
PECOS          CLEAR     63  50  63 CALM      29.82R
$$

DALLAS/FORT WORTH METROPLEX

CITY           SKY/WX    TMP DP  RH WIND       PRES   REMARKS
DFW AIRPORT    PTCLDY    69  68  96 SE7       29.89R
FTW MEACHAM    CLEAR     71  68  90 SE7       29.88R
DAL-EXECUTIVE  CLEAR     72  69  90 SE7       29.90R
GRAND PRAIRIE  PTCLDY    72  70  93 SE5       29.91R
ADDISON        MOCLDY    73  71  93 SE8       29.92R
MESQUITE       MOCLDY    72  70  95 SE6       29.91R
LANCASTER      PTCLDY    72  68  88 SE5       29.91R
$$

NORTH CENTRAL TEXAS

CITY           SKY/WX    TMP DP  RH WIND       PRES   REMARKS
SHRMAN/DENISON CLEAR     69  68  95 SE7       29.91R
GAINESVILLE    CLEAR     67  64  93 SE5       29.91R
BRIDGEPORT     CLEAR     69  69 100 SE8       29.90R
DENTON         CLEAR     69  66  90 SE7       29.89R
WAXAHACHIE     MOCLDY    72  72 100 SE5       29.92R
GRANBURY       PTCLDY    71  68  90 SE5       29.90R
$$

WESTERN NORTH TEXAS

CITY           SKY/WX    TMP DP  RH WIND       PRES   REMARKS
WICHITA FALLS  CLEAR     68  65  90 SE9       29.84R
VERNON         CLEAR     72  60  67 SE13      29.82R
BRECKENRIDGE   CLEAR     73  64  75 SE10      29.85R
COMANCHE       CLEAR     68  68 100 SE6       29.90R
$$

CENTRAL AND SOUTH CENTRAL TEXAS

CITY           SKY/WX    TMP DP  RH WIND       PRES   REMARKS
AUSTIN/BERGSTM PTCLDY    73  70  90 S12       29.90R
WACO           CLEAR     73  68  84 SE9       29.89R
HILLSBORO      PTCLDY    72  67  86 SE9       29.90R
TEMPLE         PTCLDY    72  64  78 SE12      29.90R
KILLEEN-GRAY   PTCLDY    72  69  91 S10       29.90R
FORT HOOD      PTCLDY    73  69  87 S10       29.90R
GEORGETOWN     CLEAR     73  70  88 S6        29.90R
LAGO VISTA     FAIR      73  69  86 SE12      29.93R
SAN MARCOS     PTCLDY    73  68  83 SE10      29.92R
NEW BRAUNFELS  PTCLDY    74  71  91 SE12      29.89R
RANDOLPH AFB   PTCLDY    75  72  88 SE10      29.91R
SAN ANTONIO    MOCLDY    77  72  84 SE13      29.90R
STINSON        MOCLDY    77  73  87 SE10      29.88R
PLEASANTON     NOT AVBL
LA GRANGE      CLEAR     75  71  88 S8        29.91R
GIDDINGS       PTCLDY    73  69  87 S7        29.96R
$$

EAST TEXAS

CITY           SKY/WX    TMP DP  RH WIND       PRES   REMARKS
PARIS          PTCLDY    70  64  83 S7        29.92R
CLARKSVILLE    NOT AVBL
TYLER          CLEAR     70  69  97 S8        29.93R
LONGVIEW       MOCLDY    71  69  93 SE9       29.94R
PALESTINE      CLEAR     72  70  95 SE5       29.94S FOG
NACOGDOCHES      N/A     72  68  88 SE7       29.96R
$$

TEXAS HILL COUNTRY AND EDWARDS PLATEAU

CITY           SKY/WX    TMP DP  RH WIND       PRES   REMARKS
LLANO          CLEAR     73  70  88 SE7       29.92S
HORSESHOE BAY  FAIR      73  69  90 SE3       29.91R
KERRVILLE      CLEAR     71  68  88 SE3       29.92R
FREDERICKSBRG  PTCLDY    70  66  85 SE3       29.93R
ROCKSPRINGS    CLEAR     70  64  83 SE7       29.93R
HONDO          CLEAR     75  71  87 E9        29.89R
UVALDE         CLEAR     73  69  87 E6        29.87R
DEL RIO        CLEAR     76  65  68 E9        29.82R
$$

SOUTHEAST TEXAS

CITY           SKY/WX    TMP DP  RH WIND       PRES   REMARKS
COLLEGE STN    CLEAR     73  69  87 S9        29.92R
CALDWELL       CLEAR     72  72 100 SE7       29.95R
CROCKETT       NOT AVBL
BRENHAM        CLEAR     74  70  87 S6        29.94R
HUNTSVILLE     CLEAR     73  70  90 VRB6      29.94R
CONROE         MOCLDY    71  69  93 E6        29.95R
HOUSTON BUSH   PTCLDY    71  69  93 SE3       29.94R
HOUSTON HOBBY  CLEAR     73  71  93 SE3       29.94R
PERLAND        CLEAR     74  71  91 SE5       29.96R
WHARTON        CLEAR     71  70  95 SE6       29.95R
$$

THE UPPER TEXAS COAST

CITY           SKY/WX    TMP DP  RH WIND       PRES   REMARKS
ORANGE         MOCLDY    69  68  94 CALM      29.99R
PORT ARTHUR    CLOUDY    71  70  96 S6        29.96R
GALVESTON      PTCLDY    76  72  87 S13       29.97R
ANGLETON       CLEAR     70  70 100 S7        29.94R
BAY CITY       CLEAR     73  72  97 SE5       29.94R
$$

TEXAS COASTAL BEND, RIO GRANDE PLAINS DEEP SOUTH TEXAS

CITY           SKY/WX    TMP DP  RH WIND       PRES   REMARKS
VICTORIA       MOCLDY    74  72  93 SE8       29.93R
BEEVILLE       FAIR      73  73 100 E7        29.91R
ROCKPORT       CLEAR     79  72  79 S9G20     29.90R
PORT ARANSAS   CLEAR     78  74  86 SE16      29.91R
PORT LAVACA    CLEAR     73  72  94 SE5       29.94R
CORPUS CHRISTI PTCLDY    77  73  87 S14       29.89R
KINGSVILLE NAS NOT AVBL
COTULLA        CLEAR     80  73  79 SE12      29.85R
LAREDO         CLEAR     81  75  81 SE15      29.86R
BROWNSVILLE    CLEAR     78  73  84 SE12      29.90R
PORT ISABEL    CLEAR     78  31  17 SE13      29.88R
HEBBRONVILLE     N/A     77  72  83 SE10      29.90R
MCALLEN        CLEAR     79  72  79 SE10      29.89R
WESLACO        CLEAR     76  70  82 SE8       29.89R
FALFURRIAS     MOCLDY    78  71  78 SE6       29.89R
EDINBURG       CLEAR     78  71  77 SE6       29.89R
$$


USA.gov is the U.S. government's official web portal to all federal, state and local government web resources and services.